| time (UTC) | temp C | wind direction | speed KPH | gust KPH | rain 1hr cm | rain 24hr cm | rain mn cm | humidity % | barometer mb |
| 20260504004822 | 12 | 131 | 0.0 | 0.0 | 0.00 | 0.00 | 0.00 | 38 | 1012.2 |
| 20260504004319 | 12 | 131 | 0.0 | 1.6 | 0.00 | 0.00 | 0.00 | 38 | 1012.0 |
| 20260504003815 | 13 | 130 | 0.0 | 0.0 | 0.00 | 0.00 | 0.00 | 38 | 1012.1 |
| 20260504003313 | 13 | 130 | 0.0 | 0.0 | 0.00 | 0.00 | 0.00 | 38 | 1012.2 |
| 20260504002809 | 13 | 130 | 0.0 | 1.6 | 0.00 | 0.00 | 0.00 | 37 | 1012.0 |
| 20260504002306 | 13 | 125 | 1.6 | 1.6 | 0.00 | 0.00 | 0.00 | 38 | 1011.8 |
| 20260504001804 | 13 | 125 | 1.6 | 1.6 | 0.00 | 0.00 | 0.00 | 38 | 1011.8 |
| 20260504001301 | 13 | 123 | 1.6 | 1.6 | 0.00 | 0.00 | 0.00 | 37 | 1011.8 |
| 20260504000757 | 13 | 118 | 0.0 | 1.6 | 0.00 | 0.00 | 0.00 | 37 | 1011.6 |
| 20260504000254 | 13 | 137 | 1.6 | 1.6 | 0.00 | 0.00 | 0.00 | 37 | 1011.6 |
| 20260503235752 | 13 | 54 | 1.6 | 1.6 | 0.00 | 0.00 | 0.00 | 37 | 1011.4 |
| 20260503235249 | 13 | 62 | 1.6 | 3.2 | 0.00 | 0.00 | 0.00 | 37 | 1011.8 |
| 20260503234747 | 13 | 39 | 1.6 | 1.6 | 0.00 | 0.00 | 0.00 | 37 | 1011.7 |
| 20260503234245 | 13 | 270 | 0.0 | 1.6 | 0.00 | 0.00 | 0.00 | 36 | 1011.4 |
| 20260503233742 | 13 | 270 | 3.2 | 3.2 | 0.00 | 0.00 | 0.00 | 36 | 1011.5 |
| 20260503233238 | 13 | 282 | 0.0 | 0.0 | 0.00 | 0.00 | 0.00 | 35 | 1011.3 |
| 20260503232735 | 13 | 115 | 0.0 | 1.6 | 0.00 | 0.00 | 0.00 | 35 | 1011.3 |
| 20260503232232 | 14 | 140 | 3.2 | 3.2 | 0.00 | 0.00 | 0.00 | 34 | 1011.3 |
| 20260503231730 | 13 | 82 | 4.8 | 4.8 | 0.00 | 0.00 | 0.00 | 35 | 1011.1 |
| 20260503231226 | 14 | 96 | 1.6 | 1.6 | 0.00 | 0.00 | 0.00 | 35 | 1011.3 |
| 20260503230722 | 14 | 72 | 0.0 | 1.6 | 0.00 | 0.00 | 0.00 | 35 | 1011.0 |
| 20260503230220 | 14 | 66 | 3.2 | 4.8 | 0.00 | 0.00 | 0.00 | 34 | 1011.2 |
| 20260503225718 | 14 | 74 | 3.2 | 3.2 | 0.00 | 0.00 | 0.00 | 34 | 1010.9 |
| 20260503225218 | 14 | 71 | 1.6 | 1.6 | 0.00 | 0.00 | 0.00 | 34 | 1011.1 |
| 20260503224715 | 14 | 286 | 1.6 | 3.2 | 0.00 | 0.00 | 0.00 | 33 | 1010.9 |
| 20260503224213 | 15 | 127 | 0.0 | 1.6 | 0.00 | 0.00 | 0.00 | 34 | 1011.0 |
| 20260503223710 | 15 | 121 | 0.0 | 1.6 | 0.00 | 0.00 | 0.00 | 33 | 1011.0 |
| 20260503223207 | 15 | 290 | 1.6 | 1.6 | 0.00 | 0.00 | 0.00 | 32 | 1011.1 |
| 20260503222704 | 15 | 18 | 0.0 | 1.6 | 0.00 | 0.00 | 0.00 | 32 | 1010.8 |
| 20260503222202 | 15 | 58 | 1.6 | 1.6 | 0.00 | 0.00 | 0.00 | 31 | 1010.9 |
| 20260503221700 | 15 | 288 | 1.6 | 4.8 | 0.00 | 0.00 | 0.00 | 31 | 1011.1 |
| 20260503221157 | 15 | 65 | 1.6 | 1.6 | 0.00 | 0.00 | 0.00 | 32 | 1010.7 |
| 20260503220654 | 15 | 298 | 4.8 | 8.0 | 0.00 | 0.00 | 0.00 | 32 | 1010.7 |
| 20260503220150 | 15 | 71 | 1.6 | 1.6 | 0.00 | 0.00 | 0.00 | 32 | 1010.6 |
| 20260503215647 | 15 | 295 | 4.8 | 4.8 | 0.00 | 0.00 | 0.00 | 31 | 1010.9 |
| 20260503215144 | 15 | 94 | 0.0 | 1.6 | 0.00 | 0.00 | 0.00 | 33 | 1011.1 |
| 20260503214643 | 15 | 317 | 1.6 | 1.6 | 0.00 | 0.00 | 0.00 | 31 | 1010.9 |
| 20260503214138 | 15 | 344 | 3.2 | 8.0 | 0.00 | 0.00 | 0.00 | 32 | 1010.9 |
| 20260503213632 | 15 | 50 | 3.2 | 3.2 | 0.00 | 0.00 | 0.00 | 32 | 1010.9 |
| 20260503213128 | 15 | 63 | 1.6 | 1.6 | 0.00 | 0.00 | 0.00 | 32 | 1010.7 |
| 20260503212625 | 15 | 18 | 3.2 | 3.2 | 0.00 | 0.00 | 0.00 | 32 | 1011.0 |
| 20260503212123 | 15 | 349 | 3.2 | 3.2 | 0.00 | 0.00 | 0.00 | 30 | 1010.9 |
| 20260503211620 | 15 | 334 | 3.2 | 3.2 | 0.00 | 0.00 | 0.00 | 31 | 1010.7 |
| 20260503211116 | 15 | 322 | 3.2 | 3.2 | 0.00 | 0.00 | 0.00 | 32 | 1010.7 |
| 20260503210612 | 15 | 111 | 1.6 | 1.6 | 0.00 | 0.00 | 0.00 | 33 | 1010.7 |
| 20260503210109 | 15 | 70 | 1.6 | 3.2 | 0.00 | 0.00 | 0.00 | 31 | 1010.6 |
| 20260503205605 | 15 | 273 | 3.2 | 3.2 | 0.00 | 0.00 | 0.00 | 31 | 1010.6 |
| 20260503205101 | 15 | 36 | 0.0 | 1.6 | 0.00 | 0.00 | 0.00 | 32 | 1010.6 |
| 20260503204558 | 15 | 310 | 3.2 | 3.2 | 0.00 | 0.00 | 0.00 | 30 | 1010.9 |
| 20260503204056 | 15 | 105 | 0.0 | 0.0 | 0.00 | 0.00 | 0.00 | 33 | 1010.8 |
| 20260503203552 | 15 | 317 | 3.2 | 3.2 | 0.00 | 0.00 | 0.00 | 32 | 1010.7 |
| 20260503203050 | 15 | 288 | 3.2 | 3.2 | 0.00 | 0.00 | 0.00 | 33 | 1010.6 |
| 20260503202547 | 15 | 24 | 3.2 | 3.2 | 0.00 | 0.00 | 0.00 | 31 | 1011.1 |
| 20260503202045 | 15 | 312 | 4.8 | 8.0 | 0.00 | 0.00 | 0.00 | 33 | 1010.9 |
| 20260503201543 | 15 | 50 | 1.6 | 1.6 | 0.00 | 0.00 | 0.00 | 32 | 1010.9 |
| 20260503201040 | 15 | 274 | 3.2 | 3.2 | 0.00 | 0.00 | 0.00 | 33 | 1011.1 |
| 20260503200536 | 15 | 46 | 3.2 | 3.2 | 0.00 | 0.00 | 0.00 | 33 | 1011.1 |
| 20260503200033 | 15 | 201 | 3.2 | 3.2 | 0.00 | 0.00 | 0.00 | 36 | 1011.2 |
| 20260503195530 | 15 | 99 | 1.6 | 1.6 | 0.00 | 0.00 | 0.00 | 36 | 1011.1 |
| 20260503195027 | 15 | 243 | 4.8 | 8.0 | 0.00 | 0.00 | 0.00 | 33 | 1010.9 |
| 20260503194525 | 15 | 56 | 3.2 | 3.2 | 0.00 | 0.00 | 0.00 | 34 | 1011.1 |
| 20260503194024 | 15 | 299 | 6.4 | 8.0 | 0.00 | 0.00 | 0.00 | 33 | 1011.3 |
| 20260503193521 | 15 | 284 | 6.4 | 9.7 | 0.00 | 0.00 | 0.00 | 33 | 1011.0 |
| 20260503193016 | 15 | 80 | 0.0 | 1.6 | 0.00 | 0.00 | 0.00 | 34 | 1011.4 |
| 20260503192512 | 14 | 82 | 0.0 | 1.6 | 0.00 | 0.00 | 0.00 | 34 | 1011.5 |
| 20260503192008 | 14 | 277 | 4.8 | 8.0 | 0.00 | 0.00 | 0.00 | 33 | 1011.3 |
| 20260503191506 | 14 | 323 | 3.2 | 4.8 | 0.00 | 0.00 | 0.00 | 33 | 1011.3 |
| 20260503191002 | 14 | 55 | 1.6 | 3.2 | 0.00 | 0.00 | 0.00 | 35 | 1011.5 |
| 20260503190459 | 13 | 110 | 4.8 | 4.8 | 0.00 | 0.00 | 0.00 | 35 | 1011.4 |
| 20260503185956 | 13 | 311 | 4.8 | 4.8 | 0.00 | 0.00 | 0.00 | 34 | 1011.4 |
| 20260503185452 | 13 | 71 | 3.2 | 3.2 | 0.00 | 0.00 | 0.00 | 36 | 1011.6 |
| 20260503184952 | 13 | 78 | 1.6 | 4.8 | 0.00 | 0.00 | 0.00 | 35 | 1011.4 |
| 20260503184448 | 13 | 290 | 6.4 | 9.7 | 0.00 | 0.00 | 0.00 | 34 | 1011.8 |
| 20260503183945 | 13 | 155 | 4.8 | 4.8 | 0.00 | 0.00 | 0.00 | 37 | 1011.9 |
| 20260503183442 | 13 | 310 | 4.8 | 8.0 | 0.00 | 0.00 | 0.00 | 36 | 1011.7 |
| 20260503182938 | 14 | 50 | 3.2 | 3.2 | 0.00 | 0.00 | 0.00 | 36 | 1012.0 |
| 20260503182437 | 15 | 300 | 6.4 | 8.0 | 0.00 | 0.00 | 0.00 | 34 | 1011.6 |
| 20260503181935 | 13 | 71 | 0.0 | 1.6 | 0.00 | 0.00 | 0.00 | 36 | 1011.7 |
| 20260503181432 | 13 | 24 | 4.8 | 8.0 | 0.00 | 0.00 | 0.00 | 35 | 1011.7 |
| 20260503180927 | 13 | 352 | 1.6 | 3.2 | 0.00 | 0.00 | 0.00 | 38 | 1011.7 |
| 20260503180427 | 13 | 56 | 1.6 | 3.2 | 0.00 | 0.00 | 0.00 | 38 | 1011.8 |
| 20260503175923 | 14 | 54 | 1.6 | 1.6 | 0.00 | 0.00 | 0.00 | 36 | 1011.5 |
| 20260503175421 | 15 | 100 | 1.6 | 3.2 | 0.00 | 0.00 | 0.00 | 37 | 1011.8 |
| 20260503174916 | 14 | 312 | 4.8 | 4.8 | 0.00 | 0.00 | 0.00 | 37 | 1011.8 |
| 20260503174415 | 13 | 140 | 1.6 | 1.6 | 0.00 | 0.00 | 0.00 | 39 | 1011.9 |
| 20260503173914 | 12 | 293 | 1.6 | 3.2 | 0.00 | 0.00 | 0.00 | 38 | 1012.1 |
| 20260503173411 | 13 | 33 | 3.2 | 4.8 | 0.00 | 0.00 | 0.00 | 38 | 1012.1 |
| 20260503172908 | 12 | 84 | 1.6 | 3.2 | 0.00 | 0.00 | 0.00 | 41 | 1012.1 |
| 20260503172406 | 12 | 23 | 4.8 | 8.0 | 0.00 | 0.00 | 0.00 | 40 | 1012.1 |
| 20260503171901 | 12 | 284 | 4.8 | 8.0 | 0.00 | 0.00 | 0.00 | 40 | 1012.2 |
| 20260503171358 | 12 | 54 | 3.2 | 3.2 | 0.00 | 0.00 | 0.00 | 41 | 1012.4 |
| 20260503170856 | 12 | 308 | 3.2 | 3.2 | 0.00 | 0.00 | 0.00 | 41 | 1012.3 |
| 20260503170352 | 13 | 72 | 3.2 | 3.2 | 0.00 | 0.00 | 0.00 | 39 | 1012.4 |
| 20260503150744 | 10 | 320 | 3.2 | 3.2 | 0.00 | 0.00 | 0.00 | 46 | 1012.8 |
| 20260503150240 | 10 | 66 | 0.0 | 1.6 | 0.00 | 0.00 | 0.00 | 49 | 1012.9 |
| 20260503140205 | 10 | 68 | 1.6 | 3.2 | 0.00 | 0.00 | 0.00 | 49 | 1012.7 |
| 20260503131134 | 8 | 55 | 1.6 | 3.2 | 0.00 | 0.00 | 0.00 | 55 | 1012.7 |
| 20260503130632 | 8 | 62 | 0.0 | 1.6 | 0.00 | 0.00 | 0.00 | 56 | 1012.5 |
| 20260503130129 | 8 | 58 | 1.6 | 1.6 | 0.00 | 0.00 | 0.00 | 57 | 1012.8 |
| 20260503110522 | 6 | 71 | 0.0 | 1.6 | 0.00 | 0.00 | 0.00 | 65 | 1012.5 |
| 20260503090408 | 6 | 72 | 0.0 | 0.0 | 0.00 | 0.00 | 0.00 | 59 | 1011.2 |
| 20260503081335 | 7 | 66 | 0.0 | 1.6 | 0.00 | 0.00 | 0.00 | 59 | 1010.9 |
| 20260503080832 | 7 | 70 | 0.0 | 0.0 | 0.00 | 0.00 | 0.00 | 59 | 1010.9 |
| 20260503080329 | 7 | 56 | 0.0 | 0.0 | 0.00 | 0.00 | 0.00 | 59 | 1011.0 |
| 20260503072805 | 7 | 62 | 0.0 | 0.0 | 0.00 | 0.00 | 0.00 | 60 | 1010.8 |
| 20260503072305 | 7 | 62 | 0.0 | 0.0 | 0.00 | 0.00 | 0.00 | 61 | 1011.0 |
| 20260503071758 | 7 | 62 | 0.0 | 0.0 | 0.00 | 0.00 | 0.00 | 60 | 1011.0 |
| 20260503071255 | 7 | 62 | 0.0 | 1.6 | 0.00 | 0.00 | 0.00 | 60 | 1010.8 |
| 20260503070752 | 7 | 62 | 1.6 | 1.6 | 0.00 | 0.00 | 0.00 | 60 | 1010.9 |
| 20260503070250 | 7 | 62 | 0.0 | 0.0 | 0.00 | 0.00 | 0.00 | 60 | 1011.1 |
| 20260503060215 | 8 | 62 | 0.0 | 0.0 | 0.00 | 0.00 | 0.00 | 56 | 1010.8 |
| 20260503054702 | 8 | 62 | 0.0 | 0.0 | 0.00 | 0.00 | 0.00 | 57 | 1011.2 |
| 20260503054159 | 8 | 62 | 0.0 | 0.0 | 0.00 | 0.00 | 0.00 | 56 | 1011.0 |
| 20260503053657 | 8 | 62 | 0.0 | 0.0 | 0.00 | 0.00 | 0.00 | 57 | 1011.3 |
| 20260503053155 | 8 | 62 | 0.0 | 0.0 | 0.00 | 0.00 | 0.00 | 56 | 1011.2 |
| 20260503052651 | 8 | 62 | 0.0 | 0.0 | 0.00 | 0.00 | 0.00 | 54 | 1011.1 |
| 20260503052148 | 8 | 58 | 0.0 | 0.0 | 0.00 | 0.00 | 0.00 | 55 | 1011.3 |
| 20260503051643 | 8 | 58 | 0.0 | 1.6 | 0.00 | 0.00 | 0.00 | 54 | 1011.3 |
| 20260503051141 | 8 | 55 | 0.0 | 0.0 | 0.00 | 0.00 | 0.00 | 54 | 1011.3 |
| 20260503050637 | 8 | 66 | 0.0 | 0.0 | 0.00 | 0.00 | 0.00 | 55 | 1011.4 |
| 20260503050134 | 8 | 66 | 0.0 | 0.0 | 0.00 | 0.00 | 0.00 | 55 | 1011.5 |
| 20260503045632 | 8 | 66 | 0.0 | 0.0 | 0.00 | 0.00 | 0.00 | 56 | 1011.4 |
| 20260503045129 | 8 | 66 | 0.0 | 0.0 | 0.00 | 0.00 | 0.00 | 56 | 1011.6 |
| 20260503044625 | 8 | 66 | 0.0 | 0.0 | 0.00 | 0.00 | 0.00 | 55 | 1011.6 |
| 20260503044123 | 8 | 66 | 0.0 | 0.0 | 0.00 | 0.00 | 0.00 | 57 | 1011.5 |
| 20260503043619 | 8 | 66 | 0.0 | 1.6 | 0.00 | 0.00 | 0.00 | 57 | 1011.6 |
| 20260503043116 | 8 | 66 | 0.0 | 0.0 | 0.00 | 0.00 | 0.00 | 56 | 1011.5 |
| 20260503042613 | 8 | 66 | 0.0 | 0.0 | 0.00 | 0.00 | 0.00 | 56 | 1011.6 |
| 20260503042109 | 8 | 66 | 0.0 | 0.0 | 0.00 | 0.00 | 0.00 | 56 | 1011.9 |
| 20260503041605 | 8 | 66 | 0.0 | 0.0 | 0.00 | 0.00 | 0.00 | 55 | 1011.6 |
| 20260503041104 | 8 | 66 | 0.0 | 0.0 | 0.00 | 0.00 | 0.00 | 55 | 1011.7 |
| 20260503040600 | 8 | 66 | 0.0 | 0.0 | 0.00 | 0.00 | 0.00 | 55 | 1011.5 |
| 20260503040058 | 8 | 66 | 0.0 | 0.0 | 0.00 | 0.00 | 0.00 | 54 | 1011.8 |
| 20260503035554 | 8 | 66 | 1.6 | 1.6 | 0.00 | 0.00 | 0.00 | 54 | 1011.6 |
| 20260503035052 | 8 | 66 | 0.0 | 0.0 | 0.00 | 0.00 | 0.00 | 55 | 1011.7 |
| 20260503034549 | 9 | 66 | 0.0 | 0.0 | 0.00 | 0.00 | 0.00 | 54 | 1011.5 |
| 20260503034046 | 9 | 66 | 0.0 | 0.0 | 0.00 | 0.00 | 0.00 | 54 | 1011.6 |
| 20260503033543 | 9 | 66 | 0.0 | 0.0 | 0.00 | 0.00 | 0.00 | 53 | 1011.6 |
| 20260503033041 | 9 | 66 | 0.0 | 0.0 | 0.00 | 0.00 | 0.00 | 52 | 1011.6 |
| 20260503032539 | 9 | 66 | 0.0 | 0.0 | 0.00 | 0.00 | 0.00 | 53 | 1011.6 |
| 20260503032037 | 9 | 66 | 0.0 | 0.0 | 0.00 | 0.00 | 0.00 | 52 | 1011.5 |
| 20260503031535 | 9 | 66 | 0.0 | 0.0 | 0.00 | 0.00 | 0.00 | 52 | 1011.4 |
| 20260503031032 | 9 | 66 | 0.0 | 0.0 | 0.00 | 0.00 | 0.00 | 52 | 1011.3 |
| 20260503030527 | 9 | 70 | 0.0 | 0.0 | 0.00 | 0.00 | 0.00 | 53 | 1011.5 |
| 20260503030025 | 9 | 67 | 0.0 | 0.0 | 0.00 | 0.00 | 0.00 | 54 | 1011.8 |
| 20260503025521 | 9 | 66 | 0.0 | 0.0 | 0.00 | 0.00 | 0.00 | 54 | 1011.8 |
| 20260503025020 | 9 | 66 | 0.0 | 1.6 | 0.00 | 0.00 | 0.00 | 53 | 1011.6 |
| 20260503024515 | 9 | 71 | 0.0 | 0.0 | 0.00 | 0.00 | 0.00 | 54 | 1011.5 |
| 20260503024013 | 9 | 66 | 1.6 | 1.6 | 0.00 | 0.00 | 0.00 | 54 | 1011.6 |
| 20260503023509 | 10 | 72 | 0.0 | 0.0 | 0.00 | 0.00 | 0.00 | 54 | 1011.7 |
| 20260503023007 | 10 | 72 | 0.0 | 0.0 | 0.00 | 0.00 | 0.00 | 54 | 1011.7 |
| 20260503022502 | 10 | 72 | 0.0 | 0.0 | 0.00 | 0.00 | 0.00 | 54 | 1011.8 |
| 20260503021957 | 10 | 72 | 0.0 | 0.0 | 0.00 | 0.00 | 0.00 | 53 | 1011.7 |
| 20260503021454 | 10 | 72 | 0.0 | 0.0 | 0.00 | 0.00 | 0.00 | 55 | 1011.7 |
| 20260503020951 | 10 | 74 | 0.0 | 0.0 | 0.00 | 0.00 | 0.00 | 55 | 1011.6 |
| 20260503020449 | 10 | 74 | 0.0 | 0.0 | 0.00 | 0.00 | 0.00 | 54 | 1011.8 |
| 20260503015945 | 10 | 74 | 0.0 | 0.0 | 0.00 | 0.00 | 0.00 | 57 | 1011.9 |
| 20260503015442 | 10 | 74 | 0.0 | 0.0 | 0.00 | 0.00 | 0.00 | 56 | 1011.7 |
| 20260503014938 | 10 | 74 | 0.0 | 0.0 | 0.00 | 0.00 | 0.00 | 55 | 1011.6 |
| 20260503014435 | 10 | 74 | 0.0 | 0.0 | 0.00 | 0.00 | 0.00 | 55 | 1011.7 |
| 20260503013933 | 10 | 74 | 0.0 | 0.0 | 0.00 | 0.00 | 0.00 | 55 | 1012.1 |
| 20260503013430 | 10 | 74 | 0.0 | 0.0 | 0.00 | 0.00 | 0.00 | 55 | 1011.8 |
| 20260503012927 | 10 | 74 | 0.0 | 0.0 | 0.00 | 0.00 | 0.00 | 55 | 1011.9 |
| 20260503012426 | 10 | 74 | 0.0 | 0.0 | 0.00 | 0.00 | 0.00 | 54 | 1011.9 |
| 20260503011921 | 10 | 74 | 0.0 | 0.0 | 0.00 | 0.00 | 0.00 | 55 | 1011.6 |
| 20260503011418 | 10 | 74 | 0.0 | 0.0 | 0.00 | 0.00 | 0.00 | 54 | 1011.6 |
| 20260503010915 | 10 | 74 | 0.0 | 0.0 | 0.00 | 0.00 | 0.00 | 54 | 1011.6 |
| 20260503010412 | 11 | 74 | 0.0 | 0.0 | 0.00 | 0.00 | 0.00 | 54 | 1011.6 |
| 20260503005909 | 11 | 74 | 0.0 | 0.0 | 0.00 | 0.00 | 0.00 | 53 | 1011.3 |
| 20260503005407 | 11 | 74 | 0.0 | 0.0 | 0.00 | 0.00 | 0.00 | 53 | 1011.3 |